Location: Hawks Ness
(60.2333°N, 1.1667°W)
Time: 07:50:44
(UTC+00:00)

Cosmos 2369 Rocket - Pass Details

Date: 22 October 2019
Orbit: 830 x 851 km, 71.0° (Epoch: 11 November)

Event Time Altitude Azimuth Distance (km) Brightness Sun altitude
Exits shadow 02:39:06 24° 337° (NNW) 1,681 3.8 -31.6°
Maximum altitude 02:41:39 35° 23° (NNE) 1,325 3.6 -31.4°
Drops below altitude 10° 02:46:46 10° 89° (E) 2,445 5.2 -30.8°
Sets 02:49:25 0° 98° (E) 3,377 5.9 -30.6°
